• In Romania
  • List of Countries
  • For 7 days
  • Water Temperature
  • Satellite Maps
  • Weather Map
  • Weather Widgets
  • user-avatar
    Login

    Hourly Weather Solden

    Today, 28 April, Friday

    Time Temperature Precipitation Wind Pressure Humidity
    00:00 -3°C° 0.7 mm 1 mps 573 mmHg 97%
    01:00 -3°C° 0.7 mm 1 mps 573 mmHg 97%
    02:00 -3°C° 0.7 mm 1 mps 572 mmHg 97%
    03:00 -3°C° 0.7 mm 1 mps 572 mmHg 97%
    04:00 -4°C° 0.7 mm 1 mps 572 mmHg 98%
    05:00 -4°C° 0.7 mm 1 mps 572 mmHg 97%
    06:00 -4°C° 0.7 mm 1 mps 572 mmHg 96%
    07:00 -6°C° 0.7 mm 2 mps 572 mmHg 95%
    08:00 -5°C° 0.4 mm 2 mps 573 mmHg 90%
    09:00 -4°C° 0.4 mm 2 mps 573 mmHg 86%
    10:00 -4°C° 0.4 mm 2 mps 574 mmHg 81%
    11:00 -4°C° 0.6 mm 2 mps 574 mmHg 81%
    12:00 -4°C° 0.6 mm 2 mps 574 mmHg 82%
    13:00 -3°C° 0.6 mm 2 mps 575 mmHg 82%
    14:00 -4°C° 0.6 mm 2 mps 575 mmHg 83%
    15:00 -4°C° 0.6 mm 2 mps 575 mmHg 84%
    16:00 -5°C° 0.6 mm 3 mps 575 mmHg 85%
    17:00 -5°C° 0.2 mm 2 mps 575 mmHg 86%
    18:00 -6°C° 0.2 mm 2 mps 575 mmHg 88%
    19:00 -7°C° 0.2 mm 2 mps 575 mmHg 89%
    20:00 -8°C° 0 mm 2 mps 575 mmHg 89%
    21:00 -9°C° 0 mm 2 mps 575 mmHg 90%
    22:00 -10°C° 0 mm 2 mps 575 mmHg 91%
    23:00 -12°C° 0 mm 2 mps 575 mmHg 91%

    Tomorrow, 29 April, Saturday

    Time Temperature Precipitation Wind Pressure Humidity
    00:00 -13°C° 0 mm 2 mps 575 mmHg 91%
    01:00 -14°C° 0 mm 2 mps 575 mmHg 91%
    02:00 -15°C° 0 mm 2 mps 574 mmHg 90%
    03:00 -16°C° 0 mm 2 mps 574 mmHg 90%
    04:00 -17°C° 0 mm 2 mps 573 mmHg 90%
    05:00 -13°C° 0 mm 1 mps 575 mmHg 87%
    06:00 -10°C° 0 mm 1 mps 577 mmHg 85%
    07:00 -7°C° 0 mm 1 mps 578 mmHg 82%
    08:00 -4°C° 0 mm 1 mps 579 mmHg 79%
    09:00 -2°C° 0 mm 1 mps 580 mmHg 77%
    10:00 -1°C° 0 mm 0 mps 581 mmHg 74%
    11:00 0°C° 0 mm 0 mps 581 mmHg 74%
    12:00 +2°C° 0 mm 1 mps 581 mmHg 74%
    13:00 +2°C° 0 mm 1 mps 581 mmHg 75%
    14:00 +2°C° 0 mm 1 mps 581 mmHg 75%
    15:00 +2°C° 0 mm 1 mps 581 mmHg 76%
    16:00 +2°C° 0 mm 1 mps 581 mmHg 77%
    17:00 0°C° 0 mm 1 mps 580 mmHg 81%
    18:00 -2°C° 0 mm 1 mps 579 mmHg 85%
    19:00 -4°C° 0 mm 1 mps 578 mmHg 90%
    20:00 -6°C° 0 mm 1 mps 578 mmHg 91%
    21:00 -6°C° 0 mm 1 mps 577 mmHg 93%
    22:00 -7°C° 0 mm 1 mps 577 mmHg 95%
    23:00 -7°C° 0 mm 1 mps 577 mmHg 95%

    Day after tomorrow, 30 April, Sunday

    Time Temperature Precipitation Wind Pressure Humidity
    00:00 -7°C° 0 mm 1 mps 577 mmHg 96%
    01:00 -7°C° 0 mm 1 mps 577 mmHg 96%
    02:00 -7°C° 0 mm 1 mps 577 mmHg 96%
    03:00 -7°C° 0 mm 1 mps 577 mmHg 96%
    04:00 -7°C° 0 mm 1 mps 577 mmHg 95%
    05:00 -6°C° 0 mm 1 mps 578 mmHg 93%
    06:00 -3°C° 0 mm 1 mps 579 mmHg 90%
    07:00 -2°C° 0 mm 1 mps 579 mmHg 87%
    08:00 0°C° 0 mm 1 mps 580 mmHg 84%
    09:00 +1°C° 0 mm 1 mps 580 mmHg 81%
    10:00 +1°C° 0 mm 2 mps 580 mmHg 79%
    11:00 +2°C° 0 mm 2 mps 580 mmHg 78%
    12:00 +2°C° 0 mm 2 mps 580 mmHg 77%
    13:00 +2°C° 0 mm 2 mps 580 mmHg 76%
    14:00 +2°C° 0 mm 2 mps 580 mmHg 78%
    15:00 +2°C° 0 mm 2 mps 579 mmHg 79%
    16:00 +2°C° 0 mm 2 mps 579 mmHg 80%
    17:00 +1°C° 0 mm 2 mps 578 mmHg 85%
    18:00 -1°C° 0 mm 2 mps 578 mmHg 89%
    19:00 -1°C° 0 mm 1 mps 577 mmHg 93%
    20:00 -1°C° 0 mm 1 mps 577 mmHg 95%
    21:00 -2°C° 0 mm 1 mps 577 mmHg 96%
    22:00 -3°C° 0 mm 1 mps 576 mmHg 97%
    23:00 -3°C° 0 mm 1 mps 576 mmHg 97%

    1 May, Monday

    Time Temperature Precipitation Wind Pressure Humidity
    00:00 -3°C° 0 mm 1 mps 576 mmHg 97%
    01:00 -3°C° 0 mm 1 mps 576 mmHg 97%
    02:00 -3°C° 0.1 mm 1 mps 576 mmHg 97%
    03:00 -3°C° 0.1 mm 1 mps 575 mmHg 97%
    04:00 -3°C° 0.1 mm 1 mps 575 mmHg 97%
    05:00 -2°C° 0.1 mm 1 mps 575 mmHg 95%
    06:00 -1°C° 0.1 mm 1 mps 576 mmHg 93%
    07:00 -1°C° 0.1 mm 1 mps 576 mmHg 91%
    08:00 0°C° 0.5 mm 1 mps 577 mmHg 88%
    09:00 +1°C° 0.5 mm 1 mps 577 mmHg 85%
    10:00 +1°C° 0.5 mm 2 mps 578 mmHg 82%
    11:00 -1°C° 1.6 mm 2 mps 577 mmHg 86%
    12:00 -1°C° 1.6 mm 2 mps 577 mmHg 89%
    13:00 -2°C° 1.6 mm 2 mps 577 mmHg 93%
    14:00 -2°C° 1.5 mm 2 mps 577 mmHg 92%
    15:00 0°C° 1.6 mm 1 mps 577 mmHg 92%
    16:00 0°C° 1.6 mm 1 mps 577 mmHg 92%
    17:00 -3°C° 1.5 mm 2 mps 577 mmHg 93%
    18:00 -4°C° 1.5 mm 2 mps 577 mmHg 95%
    19:00 -5°C° 1.5 mm 2 mps 576 mmHg 96%
    20:00 -5°C° 1.2 mm 2 mps 576 mmHg 96%
    21:00 -6°C° 1.2 mm 2 mps 576 mmHg 96%
    22:00 -7°C° 1.2 mm 2 mps 576 mmHg 96%
    23:00 -7°C° 0.8 mm 2 mps 576 mmHg 96%

    2 May, Tuesday

    Time Temperature Precipitation Wind Pressure Humidity
    00:00 -7°C° 0.8 mm 2 mps 576 mmHg 95%
    01:00 -7°C° 0.8 mm 2 mps 576 mmHg 95%
    02:00 -8°C° 0.4 mm 2 mps 576 mmHg 95%
    03:00 -8°C° 0.4 mm 2 mps 575 mmHg 95%
    04:00 -8°C° 0.4 mm 2 mps 575 mmHg 95%
    05:00 -8°C° 0.3 mm 2 mps 576 mmHg 94%
    06:00 -7°C° 0.3 mm 2 mps 576 mmHg 94%
    07:00 -4°C° 0.3 mm 1 mps 577 mmHg 93%
    08:00 -3°C° 0.3 mm 1 mps 577 mmHg 92%
    09:00 -2°C° 0.3 mm 1 mps 577 mmHg 90%
    10:00 -1°C° 0.3 mm 1 mps 578 mmHg 89%
    11:00 0°C° 0.4 mm 1 mps 578 mmHg 88%
    12:00 0°C° 0.4 mm 1 mps 578 mmHg 87%
    13:00 +1°C° 0.4 mm 1 mps 578 mmHg 87%
    14:00 +1°C° 0.6 mm 1 mps 578 mmHg 86%
    15:00 +1°C° 0.6 mm 1 mps 578 mmHg 86%
    16:00 +1°C° 0.6 mm 1 mps 578 mmHg 86%
    17:00 0°C° 0.6 mm 1 mps 578 mmHg 88%
    18:00 -1°C° 0.6 mm 1 mps 578 mmHg 91%
    19:00 -2°C° 0.6 mm 1 mps 577 mmHg 94%
    20:00 -4°C° 0.5 mm 0 mps 577 mmHg 94%
    21:00 -4°C° 0.5 mm 0 mps 577 mmHg 95%
    22:00 -5°C° 0.5 mm 0 mps 577 mmHg 95%
    23:00 -6°C° 0.3 mm 0 mps 576 mmHg 95%

    3 May, Wednesday

    Time Temperature Precipitation Wind Pressure Humidity
    00:00 -6°C° 0.3 mm 0 mps 576 mmHg 96%
    01:00 -7°C° 0.3 mm 1 mps 576 mmHg 96%
    02:00 -6°C° 0.3 mm 1 mps 576 mmHg 95%
    03:00 -6°C° 0.3 mm 1 mps 576 mmHg 94%
    04:00 -6°C° 0.3 mm 1 mps 576 mmHg 93%
    05:00 -4°C° 0.4 mm 1 mps 577 mmHg 92%
    06:00 -3°C° 0.4 mm 1 mps 577 mmHg 91%
    07:00 -3°C° 0.4 mm 0 mps 578 mmHg 90%
    08:00 -2°C° 0.3 mm 0 mps 578 mmHg 89%
    09:00 0°C° 0.3 mm 1 mps 578 mmHg 87%
    10:00 +1°C° 0.3 mm 1 mps 579 mmHg 86%
    11:00 +1°C° 0.3 mm 1 mps 579 mmHg 86%
    12:00 +2°C° 0.3 mm 1 mps 579 mmHg 86%
    13:00 +2°C° 0.3 mm 1 mps 579 mmHg 85%
    14:00 +2°C° 0.6 mm 1 mps 579 mmHg 86%
    15:00 +2°C° 0.6 mm 1 mps 579 mmHg 86%
    16:00 +2°C° 0.6 mm 1 mps 579 mmHg 87%
    17:00 +1°C° 0.8 mm 1 mps 579 mmHg 89%
    18:00 0°C° 0.8 mm 1 mps 578 mmHg 92%
    19:00 0°C° 0.8 mm 1 mps 578 mmHg 94%
    20:00 -1°C° 0.8 mm 1 mps 578 mmHg 95%
    21:00 -2°C° 0.8 mm 1 mps 578 mmHg 96%
    22:00 -3°C° 0.8 mm 0 mps 577 mmHg 96%
    23:00 -3°C° 0.5 mm 0 mps 577 mmHg 96%
    Show more